Date String (YYYY-MM-DD hh:mm:ss) UTC,Instrument flags,Ambient pressure (hPa),Sample flow (lpm),Bypass flow (lpm),Sample temperature (°C),Ambient temperature (°C),ASC tube jacket temperature (°C),LED temperature (°C),Box temperature (°C),Sample RH (%),Span deviation,Mass concentration (μg/m³),Mass concentration (μg/m³),Mass concentration (μg/m³)
DateTimeUTC,F1_M11,P_M11,Q1_M11,Q2_M11,T1_M11,T2_M11,T3_M11,T4_M11,T5_M11,U1_M11,ZSPAN_M11,X0_M11,X2_M11,X1_M11
2021-12-21 06:00:00,,0823.7,5.01,0.00,22.6,21.7,00.0,31.9,24.2,10.9,0000.0,0026.97,0008.17,0005.79
2021-12-21 06:01:00,,0823.7,4.99,0.00,22.6,21.6,00.0,31.9,24.1,11.0,0000.0,0028.05,0008.20,0005.79
2021-12-21 06:02:00,,0823.7,5.01,0.00,22.5,21.5,00.0,31.9,24.0,11.0,0000.0,0028.40,0008.21,0005.80
2021-12-21 06:03:00,,0823.8,4.99,0.00,22.5,21.5,00.0,31.8,24.0,11.0,0000.0,0028.51,0008.17,0005.81
2021-12-21 06:04:00,,0823.7,5.01,0.00,22.4,21.5,00.0,31.8,23.9,11.0,0000.0,0028.76,0008.19,0005.82
2021-12-21 06:05:00,,0823.7,4.99,0.00,22.4,21.4,00.0,31.7,23.9,11.0,0000.0,0028.10,0008.17,0005.82
2021-12-21 06:06:00,,0823.7,5.00,0.00,22.4,21.4,00.0,31.7,23.9,11.2,0000.0,0029.00,0008.13,0005.82
2021-12-21 06:07:00,,0823.6,5.00,0.00,22.3,21.3,00.0,31.7,23.8,11.4,0000.0,0028.55,0008.10,0005.80
2021-12-21 06:08:00,,0823.7,4.99,0.00,22.3,21.3,00.0,31.6,23.8,11.3,0000.0,0030.22,0008.11,0005.79
2021-12-21 06:09:00,,0823.7,5.01,0.00,22.2,21.3,00.0,31.6,23.8,11.4,0000.0,0030.47,0008.09,0005.78
2021-12-21 06:10:00,,0823.7,5.00,0.00,22.2,21.2,00.0,31.6,23.7,11.4,0000.0,0031.37,0008.05,0005.75
2021-12-21 06:11:00,,0823.7,4.99,0.00,22.2,21.2,00.0,31.5,23.7,11.4,0000.0,0031.39,0008.05,0005.75
2021-12-21 06:12:00,,0823.7,5.01,0.00,22.1,21.2,00.0,31.5,23.7,11.4,0000.0,0030.29,0008.00,0005.74
2021-12-21 06:13:00,,0823.8,5.00,0.00,22.1,21.2,00.0,31.5,23.6,11.4,0003.4,0030.50,0007.95,0005.71
2021-12-21 06:14:00,,0823.8,5.01,0.00,22.1,21.1,00.0,31.4,23.6,11.4,0003.3,0030.22,0007.93,0005.69
2021-12-21 06:15:00,,0824.0,4.99,0.00,22.0,21.1,00.0,31.4,23.5,11.5,0004.3,0030.57,0007.89,0005.68
2021-12-21 06:16:00,,0823.9,5.00,0.00,22.0,21.1,00.0,31.3,23.5,11.4,0004.4,0031.82,0007.91,0005.67
2021-12-21 06:17:00,,0823.8,5.00,0.00,22.0,21.1,00.0,31.3,23.5,11.5,0006.0,0031.00,0007.95,0005.66
2021-12-21 06:18:00,,0823.7,5.00,0.00,22.0,21.1,00.0,31.3,23.5,11.5,0002.7,0029.95,0007.99,0005.66
2021-12-21 06:19:00,,0823.7,4.99,0.00,22.0,21.1,00.0,31.3,23.6,11.4,0001.4,0028.62,0007.95,0005.65
2021-12-21 06:20:00,,0823.6,5.01,0.00,22.0,21.1,00.0,31.2,23.6,11.4,0000.0,0029.22,0007.92,0005.63
2021-12-21 06:21:00,,0823.5,4.99,0.00,22.0,21.2,00.0,31.2,23.6,11.4,0000.0,0028.21,0007.83,0005.61
2021-12-21 06:22:00,,0823.4,5.01,0.00,22.0,21.2,00.0,31.2,23.6,11.5,0000.0,0028.77,0007.83,0005.60
2021-12-21 06:23:00,,0823.5,5.00,0.00,22.0,21.2,00.0,31.2,23.6,11.5,0000.0,0028.37,0007.83,0005.59
2021-12-21 06:24:00,,0823.6,5.00,0.00,22.0,21.1,00.0,31.2,23.6,11.5,0000.0,0027.72,0007.80,0005.59
2021-12-21 06:25:00,,0823.8,4.99,0.00,22.0,21.1,00.0,31.2,23.6,11.1,0000.0,0027.74,0007.73,0005.55
2021-12-21 06:26:00,,0823.7,5.02,0.00,22.0,21.1,00.0,31.1,23.7,11.1,0000.0,0028.95,0007.71,0005.53
2021-12-21 06:27:00,,0823.8,4.99,0.00,22.0,21.2,00.0,31.1,23.7,10.9,0000.0,0028.03,0007.62,0005.50
2021-12-21 06:28:00,,0823.7,5.01,0.00,22.0,21.3,00.0,31.1,23.7,10.7,0000.0,0028.17,0007.52,0005.48
2021-12-21 06:29:00,,0823.6,5.01,0.00,22.1,21.3,00.0,31.1,23.8,10.6,0000.0,0028.51,0007.46,0005.41
2021-12-21 06:30:00,,0823.4,4.99,0.00,22.1,21.4,00.0,31.1,23.8,10.5,0000.0,0027.72,0007.31,0005.32
2021-12-21 06:31:00,,0823.3,4.99,0.00,22.1,21.4,00.0,31.1,23.8,10.5,0000.0,0026.91,0007.22,0005.25
2021-12-21 06:32:00,,0823.3,5.01,0.00,22.1,21.4,00.0,31.1,23.8,10.5,0000.0,0025.82,0007.18,0005.18
2021-12-21 06:33:00,,0823.4,5.00,0.00,22.1,21.4,00.0,31.1,23.8,10.7,0000.0,0023.80,0007.03,0005.12
2021-12-21 06:34:00,,0823.4,4.99,0.00,22.1,21.4,00.0,31.1,23.8,10.9,0000.0,0024.09,0007.02,0005.08
2021-12-21 06:35:00,,0823.3,5.01,0.00,22.1,21.5,00.0,31.1,23.8,10.8,0000.0,0024.46,0007.01,0005.04
2021-12-21 06:36:00,,0823.3,4.98,0.00,22.1,21.4,00.0,31.1,23.7,10.9,0000.0,0024.45,0007.12,0005.06
2021-12-21 06:37:00,,0823.4,5.00,0.00,22.1,21.4,00.0,31.1,23.7,11.0,0000.0,0021.86,0007.14,0005.07
2021-12-21 06:38:00,,0823.4,5.00,0.00,22.0,21.3,00.0,31.1,23.7,11.1,0000.0,0020.89,0007.18,0005.09
2021-12-21 06:39:00,,0823.4,4.98,0.00,22.1,21.4,00.0,31.1,23.8,11.0,0000.0,0020.29,0007.23,0005.11
2021-12-21 06:40:00,,0823.4,5.01,0.00,22.1,21.4,00.0,31.1,23.8,10.8,0000.0,0020.27,0007.34,0005.17
2021-12-21 06:41:00,,0823.4,5.01,0.00,22.1,21.4,00.0,31.1,23.9,10.8,0000.0,0021.36,0007.49,0005.23
2021-12-21 06:42:00,,0823.4,5.00,0.00,22.1,21.4,00.0,31.1,23.9,10.7,0000.0,0021.34,0007.51,0005.29
2021-12-21 06:43:00,,0823.4,4.99,0.00,22.1,21.5,00.0,31.1,23.9,10.7,0000.0,0021.67,0007.56,0005.34
2021-12-21 06:44:00,,0823.5,4.99,0.00,22.2,21.5,00.0,31.1,23.9,10.7,0000.0,0022.58,0007.67,0005.38
2021-12-21 06:45:00,,0823.4,5.01,0.00,22.2,21.5,00.0,31.1,23.9,10.6,0000.0,0021.90,0007.66,0005.37
2021-12-21 06:46:00,,0823.4,5.00,0.00,22.2,21.5,00.0,31.2,23.9,10.5,0000.0,0021.21,0007.60,0005.37
2021-12-21 06:47:00,,0823.3,5.01,0.00,22.2,21.5,00.0,31.2,23.9,10.4,0000.0,0020.37,0007.53,0005.34
2021-12-21 06:48:00,,0823.3,4.99,0.00,22.2,21.5,00.0,31.2,24.0,10.5,0000.0,0020.16,0007.42,0005.30
2021-12-21 06:49:00,,0823.4,5.01,0.00,22.2,21.5,00.0,31.2,24.0,10.5,0000.0,0020.28,0007.34,0005.24
2021-12-21 06:50:00,,0823.3,5.01,0.00,22.2,21.5,00.0,31.2,24.0,10.5,0000.0,0019.51,0007.31,0005.22
2021-12-21 06:51:00,,0823.4,4.98,0.00,22.2,21.5,00.0,31.2,24.0,10.5,0000.0,0019.97,0007.21,0005.22
2021-12-21 06:52:00,,0823.4,5.02,0.00,22.3,21.5,00.0,31.2,24.0,10.5,0000.0,0019.90,0007.14,0005.21
2021-12-21 06:53:00,,0823.4,4.99,0.00,22.3,21.6,00.0,31.2,24.0,10.4,0000.0,0020.65,0007.16,0005.20
2021-12-21 06:54:00,,0823.3,4.99,0.00,22.3,21.6,00.0,31.2,24.0,10.3,0000.0,0022.48,0007.13,0005.18
2021-12-21 06:55:00,,0823.3,5.01,0.00,22.3,21.6,00.0,31.2,24.0,10.2,0000.0,0023.31,0006.99,0005.11
2021-12-21 06:56:00,,0823.3,4.99,0.00,22.3,21.6,00.0,31.2,24.0,10.0,0000.0,0024.37,0006.84,0005.03
2021-12-21 06:57:00,,0823.2,5.02,0.00,22.3,21.6,00.0,31.2,24.0,09.9,0000.0,0024.84,0006.72,0004.95
2021-12-21 06:58:00,,0823.3,4.99,0.00,22.3,21.6,00.0,31.2,24.1,09.9,0000.0,0026.83,0006.60,0004.87
2021-12-21 06:59:00,,0823.3,5.01,0.00,22.3,21.6,00.0,31.2,24.1,09.9,0000.0,0027.03,0006.49,0004.79
